Location: Newark
(47.7394°N, 8.0008°E)
Time: 12:04:31
(UTC+00:00)

N. Korean satellite - Pass Details

Date: 23 December 2019
Orbit: 454 x 508 km, 97.2° (Epoch: 17 January)

Event Time Altitude Azimuth Distance (km) Brightness Sun altitude
Rises 04:09:40 0° 34° (NE) 2,497 10.6 -29.9°
Reaches altitude 10° 04:13:20 10° 75° (ENE) 1,604 10.0 -29.3°
Maximum altitude 04:14:07 11° 88° (E) 1,565 10.1 -29.1°
Drops below altitude 10° 04:14:54 10° 102° (ESE) 1,598 10.1 -29.0°
Sets 04:18:30 0° 143° (SE) 2,459 10.7 -28.4°
